2023/01/25 00:00:00,106.4,-9.2
2023/01/25 00:10:00,107.0,-9.1
2023/01/25 00:20:00,107.4,-8.9
2023/01/25 00:30:00,107.8,-9.0
2023/01/25 00:40:00,108.3,-9.0
2023/01/25 00:50:00,108.7,-9.3
2023/01/25 01:00:00,109.5,-9.2
2023/01/25 01:10:00,109.8,-9.3
2023/01/25 01:20:00,110.3,-9.5
2023/01/25 01:30:00,111.1,-9.8
2023/01/25 01:40:00,111.7,-9.2
2023/01/25 01:50:00,112.4,-9.4
2023/01/25 02:00:00,112.9,-9.2
2023/01/25 02:10:00,112.7,-9.3
2023/01/25 02:20:00,112.7,-9.3
2023/01/25 02:30:00,112.8,-9.3
2023/01/25 02:40:00,112.5,-9.2
2023/01/25 02:50:00,113.1,-9.2
2023/01/25 03:00:00,113.6,-9.3
2023/01/25 03:10:00,113.6,-9.4
2023/01/25 03:20:00,113.9,-9.5
2023/01/25 03:30:00,114.5,-9.5
2023/01/25 03:40:00,115.0,-9.1
2023/01/25 03:50:00,115.5,-9.5
2023/01/25 04:00:00,115.5,-9.5
2023/01/25 04:10:00,115.2,-9.4
2023/01/25 04:20:00,114.9,-9.4
2023/01/25 04:30:00,114.7,-9.1
2023/01/25 04:40:00,114.4,-9.4
2023/01/25 04:50:00,114.2,-9.1
2023/01/25 05:00:00,114.3,-9.4
2023/01/25 05:10:00,114.4,-9.1
2023/01/25 05:20:00,114.5,-9.2
2023/01/25 05:30:00,114.7,-9.3
2023/01/25 05:40:00,114.7,-9.3
2023/01/25 05:50:00,114.7,-9.2
2023/01/25 06:00:00,114.5,-9.2
2023/01/25 06:10:00,114.3,-9.2
2023/01/25 06:20:00,114.5,-9.2
2023/01/25 06:30:00,114.7,-9.1
2023/01/25 06:40:00,114.4,-9.1
2023/01/25 06:50:00,114.2,-9.1
2023/01/25 07:00:00,114.3,-9.0
2023/01/25 07:10:00,114.8,-8.9
2023/01/25 07:20:00,115.2,-8.8
2023/01/25 07:30:00,115.6,-8.8
2023/01/25 07:40:00,115.6,-8.8
2023/01/25 07:50:00,116.0,-8.6
2023/01/25 08:00:00,116.5,-8.1
2023/01/25 08:10:00,116.5,-8.4
2023/01/25 08:20:00,116.9,-8.2
2023/01/25 08:30:00,117.3,-7.7
2023/01/25 08:40:00,117.3,-8.1
2023/01/25 08:50:00,117.4,-7.5
2023/01/25 09:00:00,117.8,-7.6
2023/01/25 09:10:00,118.5,-7.8
2023/01/25 09:20:00,119.4,-7.4
2023/01/25 09:30:00,119.9,-6.3
2023/01/25 09:40:00,119.9,-7.4
2023/01/25 09:50:00,119.9,-7.3
2023/01/25 10:00:00,119.9,-5.4
2023/01/25 10:10:00,119.5,-6.8
2023/01/25 10:20:00,119.7,-6.0
2023/01/25 10:30:00,119.4,-5.8
2023/01/25 10:40:00,119.4,-7.4
2023/01/25 10:50:00,120.1,-5.6
2023/01/25 11:00:00,120.3,-6.5
2023/01/25 11:10:00,120.4,-5.5
2023/01/25 11:20:00,120.2,-5.3
2023/01/25 11:30:00,119.9,-5.4
2023/01/25 11:40:00,119.8,-4.3
2023/01/25 11:50:00,119.5,-4.9
2023/01/25 12:00:00,119.3,-4.1
2023/01/25 12:10:00,119.2,-5.6
2023/01/25 12:20:00,119.5,-6.1
2023/01/25 12:30:00,120.5,-5.3
2023/01/25 12:40:00,121.6,-4.3
2023/01/25 12:50:00,121.7,-3.9
2023/01/25 13:00:00,121.6,-4.2
2023/01/25 13:10:00,121.5,-4.2
2023/01/25 13:20:00,121.7,-4.6
2023/01/25 13:30:00,122.0,-3.9
2023/01/25 13:40:00,121.9,-4.8
2023/01/25 13:50:00,122.4,-5.6
2023/01/25 14:00:00,123.1,-4.9
2023/01/25 14:10:00,124.6,-3.8
2023/01/25 14:20:00,125.1,-3.9
2023/01/25 14:30:00,125.0,-5.0
2023/01/25 14:40:00,125.1,-5.7
2023/01/25 14:50:00,126.1,-5.3
2023/01/25 15:00:00,126.5,-4.4
2023/01/25 15:10:00,126.2,-5.2
2023/01/25 15:20:00,126.6,-5.7
2023/01/25 15:30:00,127.5,-2.9
2023/01/25 15:40:00,128.0,-3.9
2023/01/25 15:50:00,127.7,-4.9
2023/01/25 16:00:00,127.5,-5.1
2023/01/25 16:10:00,127.8,-5.4
2023/01/25 16:20:00,129.0,-5.6
2023/01/25 16:30:00,129.9,-5.6
2023/01/25 16:40:00,130.8,-5.7
2023/01/25 16:50:00,130.6,-5.9
2023/01/25 17:00:00,130.6,-5.8
2023/01/25 17:10:00,131.2,-6.2
2023/01/25 17:20:00,131.7,-6.5
2023/01/25 17:30:00,131.8,-6.3
2023/01/25 17:40:00,132.7,-6.6
2023/01/25 17:50:00,133.5,-6.5
2023/01/25 18:00:00,133.5,-6.5
2023/01/25 18:10:00,133.4,-6.7
2023/01/25 18:20:00,133.4,-7.2
2023/01/25 18:30:00,133.3,-6.4
2023/01/25 18:40:00,133.4,-6.7
2023/01/25 18:50:00,133.4,-6.3
2023/01/25 19:00:00,133.1,-6.7
2023/01/25 19:10:00,133.0,-6.9
2023/01/25 19:20:00,133.2,-6.5
2023/01/25 19:30:00,133.1,-6.6
2023/01/25 19:40:00,133.0,-6.7
2023/01/25 19:50:00,132.9,-6.7
2023/01/25 20:00:00,132.9,-6.6
2023/01/25 20:10:00,132.9,-6.9
2023/01/25 20:20:00,133.5,-6.7
2023/01/25 20:30:00,133.2,-6.7
2023/01/25 20:40:00,132.8,-6.7
2023/01/25 20:50:00,132.7,-6.7
2023/01/25 21:00:00,132.4,-6.7
2023/01/25 21:10:00,132.2,-6.7
2023/01/25 21:20:00,132.3,-6.6
2023/01/25 21:30:00,132.4,-6.4
2023/01/25 21:40:00,132.3,-6.8
2023/01/25 21:50:00,132.1,-6.6
2023/01/25 22:00:00,131.9,-6.6
2023/01/25 22:10:00,131.7,-6.7
2023/01/25 22:20:00,131.4,-6.5
2023/01/25 22:30:00,131.1,-6.8
2023/01/25 22:40:00,131.0,-6.9
2023/01/25 22:50:00,130.7,-7.1
2023/01/25 23:00:00,130.2,-7.7
2023/01/25 23:10:00,129.9,-7.6
2023/01/25 23:20:00,129.9,-7.9
2023/01/25 23:30:00,129.6,-8.2
2023/01/25 23:40:00,129.3,-8.3
2023/01/25 23:50:00,129.0,-8.8
